Starlink 11298

operational
NORAD ID: 61211 Int'l Des: 2024-171 Owner: SPXS Country: US Constellation: starlink
LEOCIRCULAR

About Starlink 11298

Description loading...

Live Position

Loading 3D Globe...

Upcoming Passes

Altitude History

Altitude vs Time

uPlot chart will show altitude changes over time

Two-Line Element Set

1 61211U 24171M 25258.46553681 .00002373 00000-0 24440-4 0 9999
2 61211 53.1583 320.3556 0001140 71.3436 288.7706 15.69713508 56871
Epoch: Sep 15, 2025 • Age: 12 hours

Current Status

Altitude 367.5 km
Velocity 7.69 km/s
Sub-Earth Point -25.88°S, 47.35°W
Launch Date Sep 20, 2024
Age 0.9 years
Type internet

Technical Details

Classification Payload
Mass 960.00 kg
Dry Mass 910.00 kg
Total Mass 960.00 kg
Length 0.30 m
Diameter 4.10 m
Span 29.00 m
Shape Box + pan
Manufacturer SPXS
Bus Type Starlink V2MD
Phase Status In Orbit
Owner/State SPXS/US

Large Constellations

Loading constellations...